Weather History for Fort Indiantown Gap, PA

Change the Weather History Date:

Tuesday, February 19, 2013

  Actual Average Record
Temperature  
Mean Temperature 30 °F -  
Max Temperature 37 °F 41 °F 64 °F (1997)
Min Temperature 24 °F 26 °F 17 °F (2002)
Degree Days  
Heating Degree Days 34    
Moisture  
Dew Point 30 °F    
Average Humidity 90    
Maximum Humidity 100    
Minimum Humidity 51    
Precipitation  
Precipitation 0.20 in - - ()
Sea Level Pressure  
Sea Level Pressure 29.85 in    
Wind  
Wind Speed 2 mph (North)    
Max Wind Speed 17 mph    
Max Gust Speed 26 mph    
Visibility 4 miles    
Events Fog , Rain , Snow    
Averages and records for this station are not official NWS values.
T = Trace of Precipitation, MM = Missing Value Source: NWS Daily Summary

Daily Weather History Graph

Daily Weather History Graph

Search for Another Location

Airport:

Trip Planner

Search our weather history database for the weather conditions in past years. The results will help you decide how hot, cold, wet, or windy it might be!

Date:

Astronomy

Feb. 19, 2013 Rise Set
Actual Time 6:54 AM EST 5:46 PM EST
Civil Twilight 6:26 AM EST 6:14 PM EST
Nautical Twilight 5:54 AM EST 6:46 PM EST
Astronomical Twilight 5:23 AM EST 7:17 PM EST
Moon 12:15 PM EST (2/19) 2:24 AM EST (2/19)
Length of Visible Light 11h 47m
Length of Day
10h 52m
Waxing Gibbous, 67% of the Moon is Illuminated
Feb 19
Waxing Gibbous
Feb 25
Full
Mar 4
Last Quarter
Mar 11
New
Mar 19
First Quarter

Hourly Weather History & Observations

Time (EST) Temp. Windchill Dew Point Humidity Pressure Visibility Wind Dir Wind Speed Gust Speed Precip Events Conditions
12:55 AM 25.7 °F 20.1 °F 15.4 °F 65% 30.14 in 10.0 mi NNE 4.6 mph - N/A   Clear
1:55 AM 27.1 °F 23.2 °F 16.2 °F 63% 30.12 in 10.0 mi NNE 3.5 mph - N/A   Clear
2:55 AM 26.1 °F 21.9 °F 18.0 °F 71% 30.10 in 10.0 mi NNE 3.5 mph - N/A   Clear
3:55 AM 24.3 °F 18.4 °F 18.9 °F 80% 30.07 in 10.0 mi NNE 4.6 mph - N/A   Clear
4:55 AM 26.6 °F 21.2 °F 19.2 °F 74% 30.04 in 10.0 mi NE 4.6 mph - N/A   Clear
5:55 AM 26.4 °F - 20.8 °F 79% 30.01 in 10.0 mi Calm Calm - N/A   Clear
6:55 AM 24.8 °F 20.5 °F 21.9 °F 89% 29.99 in 10.0 mi Variable 3.5 mph - N/A   Clear
7:55 AM 29.5 °F 24.5 °F 23.9 °F 80% 29.97 in 10.0 mi NNE 4.6 mph - N/A   Clear
8:55 AM 33.4 °F - 25.7 °F 73% 29.95 in 10.0 mi Calm Calm - N/A   Partly Cloudy
9:52 AM 33.8 °F - 24.8 °F 70% 29.92 in 2.5 mi North 1.2 mph - N/A Snow Light Snow
9:55 AM 34.5 °F - 25.3 °F 69% 29.94 in 2.5 mi Calm Calm - 0.00 in Snow Light Snow
9:59 AM 33.8 °F - 26.6 °F 75% 29.96 in 1.0 mi Calm Calm - N/A Snow Light Snow
10:04 AM 33.8 °F - 26.6 °F 75% 29.91 in 0.5 mi Variable 1.2 mph - N/A Snow Snow
10:05 AM 33.8 °F - 28.4 °F 81% 29.93 in 0.8 mi Calm Calm - N/A Snow Light Snow
10:26 AM 32.0 °F - 32.0 °F 100% 29.90 in 0.8 mi Calm Calm - N/A Snow Light Snow
10:30 AM 32.0 °F - 32.0 °F 100% 29.90 in 0.5 mi Calm Calm - N/A Snow Snow
10:41 AM 32.0 °F - 32.0 °F 100% 29.93 in 0.5 mi Calm Calm - N/A Fog , Snow Light Snow
10:50 AM 32.0 °F - 32.0 °F 100% 29.91 in 0.2 mi Calm Calm - N/A Fog , Snow Heavy Snow
10:55 AM 31.3 °F - 31.3 °F 100% 29.93 in 0.5 mi Calm Calm - 0.03 in Fog , Snow Snow
11:11 AM 32.0 °F - 32.0 °F 100% 29.91 in 0.5 mi Calm Calm - N/A Fog , Snow Snow
11:37 AM 32.0 °F - 32.0 °F 100% 29.90 in 0.8 mi Calm Calm - N/A Snow Light Snow
11:44 AM 32.0 °F - 32.0 °F 100% 29.90 in 1.0 mi Calm Calm - N/A Snow Light Snow
11:55 AM 32.0 °F - 32.0 °F 100% 29.89 in 1.0 mi Calm Calm - 0.01 in Snow Light Snow
12:13 PM 32.0 °F - 32.0 °F 100% 29.87 in 0.8 mi Calm Calm - N/A Snow Light Snow
12:31 PM 32.0 °F - 32.0 °F 100% 29.86 in 0.5 mi Calm Calm - N/A Fog , Snow Light Snow
12:55 PM 33.1 °F - 33.1 °F 100% 29.83 in 0.5 mi Calm Calm - 0.07 in Snow Light Snow
1:08 PM 33.8 °F - 33.8 °F 100% 29.82 in 0.8 mi Calm Calm - N/A Snow Light Snow
1:11 PM 33.8 °F - 33.8 °F 100% 29.82 in 1.0 mi Calm Calm - N/A Snow Light Snow
1:15 PM 33.8 °F - 33.8 °F 100% 29.81 in 1.0 mi Calm Calm - N/A Snow Light Snow
1:21 PM 33.8 °F - 33.8 °F 100% 29.81 in 1.5 mi Calm Calm - N/A   Light Ice Pellets
1:29 PM 33.8 °F - 33.8 °F 100% 29.80 in 1.8 mi Calm Calm - N/A   Light Ice Pellets
1:34 PM 33.8 °F - 33.8 °F 100% 29.80 in 1.8 mi Calm Calm - N/A   Overcast
1:42 PM 33.8 °F - 33.8 °F 100% 29.80 in 2.0 mi Calm Calm - N/A   Overcast
1:52 PM 33.8 °F - 33.8 °F 100% 29.79 in 2.0 mi Calm Calm - N/A Rain Light Rain
1:55 PM 33.6 °F 30.6 °F 33.6 °F 100% 29.78 in 2.0 mi NNE 3.5 mph - 0.06 in Rain Light Rain
2:01 PM 33.8 °F - 33.8 °F 100% 29.78 in 2.0 mi Calm Calm - N/A Rain , Snow Light Rain
2:29 PM 33.8 °F 30.8 °F 33.8 °F 100% 29.76 in 2.0 mi Variable 3.5 mph - N/A   Overcast
2:36 PM 32.0 °F 28.7 °F 32.0 °F 100% 29.73 in 2.5 mi NE 3.5 mph - N/A Rain Light Rain
2:43 PM 33.8 °F 30.8 °F 33.8 °F 100% 29.75 in 3.0 mi NNE 3.5 mph - N/A   Overcast
2:55 PM 34.0 °F 31.0 °F 34.0 °F 100% 29.75 in 4.0 mi NE 3.5 mph - 0.01 in   Overcast
3:34 PM 33.8 °F 30.8 °F 33.8 °F 100% 29.73 in 5.0 mi North 3.5 mph - N/A   Overcast
3:51 PM 35.6 °F 31.7 °F 35.6 °F 100% 29.72 in 5.0 mi NNE 4.6 mph - N/A   Overcast
3:55 PM 35.2 °F 31.2 °F 35.1 °F 99% 29.72 in 5.0 mi NNE 4.6 mph - N/A   Overcast
4:46 PM 35.6 °F 32.8 °F 35.6 °F 100% 29.72 in 6.0 mi NNE 3.5 mph - N/A   Overcast
4:55 PM 35.4 °F - 35.4 °F 100% 29.72 in 6.0 mi Calm Calm - N/A   Overcast
5:12 PM 35.6 °F - 35.6 °F 100% 29.72 in 4.0 mi Calm Calm - N/A   Overcast
5:18 PM 35.6 °F - 35.6 °F 100% 29.73 in 3.0 mi Calm Calm - N/A   Overcast
5:23 PM 35.6 °F - 35.6 °F 100% 29.73 in 5.0 mi Calm Calm - N/A   Overcast
5:53 PM 35.6 °F - 35.6 °F 100% 29.75 in 5.0 mi Calm Calm - N/A   Overcast
5:55 PM 35.6 °F - 35.6 °F 100% 29.75 in 6.0 mi Calm Calm - 0.02 in   Overcast
6:02 PM 35.6 °F - 35.6 °F 100% 29.75 in 2.5 mi Calm Calm - N/A   Overcast
6:08 PM 35.6 °F - 35.6 °F 100% 29.75 in 3.0 mi Calm Calm - N/A   Overcast
7:55 PM 37.4 °F 32.8 °F 32.7 °F 83% 29.78 in 10.0 mi Variable 5.8 mph - N/A   Clear
8:55 PM 37.2 °F 30.6 °F 26.4 °F 65% 29.80 in 10.0 mi West 9.2 mph - N/A   Partly Cloudy
9:55 PM 36.1 °F 30.6 °F 24.1 °F 62% 29.81 in 10.0 mi West 6.9 mph 18.4 mph N/A   Overcast
10:55 PM 34.3 °F 25.0 °F 19.4 °F 54% 29.82 in 10.0 mi WSW 13.8 mph 26.5 mph N/A   Clear
11:55 PM 32.7 °F 21.8 °F 16.3 °F 51% 29.83 in 10.0 mi West 17.3 mph 24.2 mph N/A   Clear